TimeEDT,TemperatureF,Dew PointF,Humidity,Sea Level PressureIn,VisibilityMPH,Wind Direction,Wind SpeedMPH,Gust SpeedMPH,PrecipitationIn,Events,Conditions,WindDirDegrees,DateUTC
12:52 AM,48.9,44.1,83,30.19,10.0,Calm,Calm,-,N/A,,Clear,0,2013-05-28 04:52:00
1:52 AM,50.0,45.0,83,30.20,10.0,Calm,Calm,-,N/A,,Clear,0,2013-05-28 05:52:00
2:52 AM,48.9,46.9,93,30.20,10.0,Calm,Calm,-,N/A,,Clear,0,2013-05-28 06:52:00
3:52 AM,46.9,45.0,93,30.20,10.0,Calm,Calm,-,N/A,,Clear,0,2013-05-28 07:52:00
4:52 AM,46.9,45.0,93,30.21,10.0,Calm,Calm,-,N/A,,Clear,0,2013-05-28 08:52:00
5:52 AM,46.9,45.0,93,30.22,10.0,Calm,Calm,-,N/A,,Clear,0,2013-05-28 09:52:00
6:52 AM,55.0,51.1,86,30.24,10.0,Calm,Calm,-,N/A,,Clear,0,2013-05-28 10:52:00
7:52 AM,59.0,46.9,64,30.25,10.0,ESE,5.8,-,N/A,,Clear,110,2013-05-28 11:52:00
8:52 AM,61.0,45.0,56,30.25,10.0,ESE,8.1,-,N/A,,Clear,120,2013-05-28 12:52:00
9:52 AM,64.9,46.0,50,30.25,10.0,Variable,5.8,-,N/A,,Clear,0,2013-05-28 13:52:00
10:52 AM,64.0,48.0,56,30.26,10.0,SSE,5.8,-,N/A,,Clear,150,2013-05-28 14:52:00
11:52 AM,62.1,48.9,62,30.27,10.0,SE,8.1,-,N/A,,Clear,130,2013-05-28 15:52:00
12:52 PM,63.0,52.0,67,30.27,10.0,Variable,4.6,-,N/A,,Clear,0,2013-05-28 16:52:00
1:52 PM,64.9,53.1,65,30.25,10.0,SSW,6.9,-,N/A,,Clear,200,2013-05-28 17:52:00
2:52 PM,64.0,55.0,73,30.25,10.0,Variable,6.9,-,N/A,,Clear,0,2013-05-28 18:52:00
3:52 PM,63.0,53.1,70,30.23,10.0,SSW,6.9,-,N/A,,Clear,210,2013-05-28 19:52:00
4:52 PM,62.1,54.0,75,30.24,10.0,Variable,6.9,-,N/A,,Clear,0,2013-05-28 20:52:00
5:52 PM,60.1,53.1,78,30.22,10.0,SSW,5.8,-,N/A,,Clear,210,2013-05-28 21:52:00
6:52 PM,59.0,54.0,83,30.22,10.0,SSW,4.6,-,N/A,,Clear,210,2013-05-28 22:52:00
7:52 PM,57.0,54.0,89,30.22,10.0,SSW,5.8,-,N/A,,Clear,210,2013-05-28 23:52:00
8:42 PM,57.2,55.4,94,30.23,10.0,SW,6.9,-,N/A,,Scattered Clouds,220,2013-05-29 00:42:00
8:52 PM,57.0,55.0,93,30.23,10.0,SSW,4.6,-,N/A,,Mostly Cloudy,210,2013-05-29 00:52:00
9:01 PM,57.2,55.4,94,30.23,9.0,SSW,4.6,-,N/A,,Scattered Clouds,210,2013-05-29 01:01:00
9:52 PM,57.0,55.0,93,30.24,10.0,SW,5.8,-,N/A,,Clear,220,2013-05-29 01:52:00
10:52 PM,57.9,55.9,93,30.25,10.0,SW,8.1,-,N/A,,Overcast,220,2013-05-29 02:52:00
11:13 PM,57.2,55.4,94,30.25,10.0,SW,8.1,-,N/A,,Overcast,220,2013-05-29 03:13:00
11:24 PM,57.2,55.4,94,30.25,10.0,SW,5.8,-,N/A,,Overcast,230,2013-05-29 03:24:00
11:49 PM,57.2,57.2,100,30.25,6.0,SW,3.5,-,N/A,,Overcast,220,2013-05-29 03:49:00
11:52 PM,57.9,57.0,97,30.25,7.0,SSW,5.8,-,N/A,,Overcast,210,2013-05-29 03:52:00